| time (UTC) | temp F | wind direction | speed MPH | gust MPH | rain 1hr in | rain 24hr in | rain mn in | humidity % | barometer mb |
| 20260506090750 | 61 | 71 | 0.0 | 0.0 | 0.00 | 0.00 | 0.00 | 85 | 1014.6 |
| 20260506090247 | 61 | 75 | 0.0 | 0.0 | 0.00 | 0.00 | 0.00 | 85 | 1014.6 |
| 20260506090003 | 77 | 0 | 0.0 | 0.0 | 0.00 | 0.00 | 0.00 | 43 | 1011.2 |
| 20260506085743 | 61 | 75 | 0.0 | 0.0 | 0.00 | 0.00 | 0.00 | 84 | 1014.6 |
| 20260506085240 | 61 | 75 | 0.0 | 0.0 | 0.00 | 0.00 | 0.00 | 84 | 1014.6 |
| 20260506084736 | 61 | 74 | 0.0 | 0.0 | 0.00 | 0.00 | 0.00 | 83 | 1014.9 |
| 20260506084233 | 62 | 70 | 0.0 | 0.0 | 0.00 | 0.00 | 0.00 | 83 | 1014.8 |
| 20260506083730 | 62 | 70 | 0.0 | 0.0 | 0.00 | 0.00 | 0.00 | 82 | 1014.8 |
| 20260506083228 | 62 | 86 | 0.0 | 0.0 | 0.00 | 0.00 | 0.00 | 82 | 1014.8 |
| 20260506083003 | 77 | 0 | 0.0 | 0.0 | 0.00 | 0.00 | 0.00 | 43 | 1011.4 |
| 20260506082725 | 62 | 86 | 0.0 | 0.0 | 0.00 | 0.00 | 0.00 | 82 | 1014.9 |
| 20260506082220 | 62 | 87 | 0.0 | 0.0 | 0.00 | 0.00 | 0.00 | 82 | 1014.9 |
| 20260506081718 | 62 | 87 | 0.0 | 1.0 | 0.00 | 0.00 | 0.00 | 82 | 1014.9 |
| 20260506081215 | 62 | 80 | 0.0 | 0.0 | 0.00 | 0.00 | 0.00 | 81 | 1014.8 |
| 20260506080713 | 63 | 71 | 0.0 | 0.0 | 0.00 | 0.00 | 0.00 | 81 | 1014.8 |
| 20260506080209 | 63 | 72 | 0.0 | 0.0 | 0.00 | 0.00 | 0.00 | 81 | 1014.9 |
| 20260506073154 | 63 | 84 | 0.0 | 0.0 | 0.00 | 0.00 | 0.00 | 80 | 1015.0 |
| 20260506073003 | 77 | 0 | 0.0 | 0.0 | 0.00 | 0.00 | 0.00 | 43 | 1011.4 |
| 20260506072650 | 63 | 96 | 0.0 | 0.0 | 0.00 | 0.00 | 0.00 | 79 | 1014.9 |
| 20260506072148 | 63 | 81 | 0.0 | 2.0 | 0.00 | 0.00 | 0.00 | 79 | 1014.8 |
| 20260506071645 | 63 | 89 | 0.0 | 1.0 | 0.00 | 0.00 | 0.00 | 79 | 1014.9 |
| 20260506071143 | 63 | 73 | 0.0 | 2.0 | 0.00 | 0.00 | 0.00 | 79 | 1014.9 |
| 20260506070640 | 63 | 73 | 0.0 | 1.0 | 0.00 | 0.00 | 0.00 | 78 | 1014.9 |
| 20260506070136 | 63 | 85 | 0.0 | 0.0 | 0.00 | 0.00 | 0.00 | 78 | 1014.8 |
| 20260506062114 | 64 | 91 | 0.0 | 0.0 | 0.00 | 0.00 | 0.00 | 77 | 1014.6 |
| 20260506061609 | 64 | 76 | 0.0 | 1.0 | 0.00 | 0.00 | 0.00 | 77 | 1014.3 |
| 20260506061108 | 64 | 77 | 0.0 | 1.0 | 0.00 | 0.00 | 0.00 | 76 | 1014.4 |
| 20260506060606 | 64 | 86 | 0.0 | 0.0 | 0.00 | 0.00 | 0.00 | 76 | 1014.5 |
| 20260506051035 | 64 | 95 | 1.0 | 1.0 | 0.00 | 0.00 | 0.00 | 74 | 1015.0 |
| 20260506050532 | 64 | 84 | 0.0 | 1.0 | 0.00 | 0.00 | 0.00 | 73 | 1015.0 |
| 20260506045023 | 64 | 80 | 0.0 | 1.0 | 0.00 | 0.00 | 0.00 | 72 | 1015.4 |
| 20260506044521 | 64 | 86 | 0.0 | 1.0 | 0.00 | 0.00 | 0.00 | 72 | 1015.4 |
| 20260506044018 | 64 | 82 | 0.0 | 1.0 | 0.00 | 0.00 | 0.00 | 71 | 1015.4 |
| 20260506043514 | 64 | 87 | 0.0 | 0.0 | 0.00 | 0.00 | 0.00 | 71 | 1015.6 |
| 20260506043013 | 64 | 92 | 0.0 | 0.0 | 0.00 | 0.00 | 0.00 | 70 | 1015.2 |
| 20260506043003 | 77 | 0 | 0.0 | 0.0 | 0.00 | 0.00 | 0.00 | 43 | 1012.0 |
| 20260506042512 | 64 | 79 | 0.0 | 1.0 | 0.00 | 0.00 | 0.00 | 70 | 1015.2 |
| 20260506042009 | 63 | 88 | 1.0 | 2.0 | 0.00 | 0.00 | 0.00 | 70 | 1015.0 |
| 20260506041508 | 62 | 94 | 1.0 | 3.0 | 0.00 | 0.00 | 0.00 | 71 | 1015.0 |
| 20260506041004 | 62 | 87 | 0.0 | 0.0 | 0.00 | 0.00 | 0.00 | 73 | 1015.0 |
| 20260506040502 | 62 | 85 | 0.0 | 0.0 | 0.00 | 0.00 | 0.00 | 72 | 1014.8 |
| 20260506040003 | 77 | 0 | 0.0 | 0.0 | 0.00 | 0.00 | 0.00 | 43 | 1011.5 |
| 20260506035957 | 62 | 90 | 0.0 | 0.0 | 0.00 | 0.00 | 0.00 | 72 | 1014.9 |
| 20260506035455 | 62 | 103 | 0.0 | 0.0 | 0.00 | 0.00 | 0.00 | 72 | 1014.7 |
| 20260506034951 | 62 | 94 | 0.0 | 1.0 | 0.00 | 0.00 | 0.00 | 72 | 1014.7 |
| 20260506034449 | 62 | 91 | 0.0 | 1.0 | 0.00 | 0.00 | 0.00 | 72 | 1014.9 |
| 20260506033946 | 62 | 87 | 0.0 | 0.0 | 0.00 | 0.00 | 0.00 | 72 | 1014.7 |
| 20260506033443 | 62 | 86 | 0.0 | 0.0 | 0.00 | 0.00 | 0.00 | 72 | 1014.9 |
| 20260506033004 | 77 | 0 | 0.0 | 0.0 | 0.00 | 0.00 | 0.00 | 43 | 1011.5 |
| 20260506032940 | 62 | 83 | 0.0 | 1.0 | 0.00 | 0.00 | 0.00 | 72 | 1014.9 |
| 20260506032437 | 62 | 69 | 0.0 | 1.0 | 0.00 | 0.00 | 0.00 | 71 | 1014.8 |
| 20260506031934 | 62 | 56 | 1.0 | 1.0 | 0.00 | 0.00 | 0.00 | 70 | 1014.9 |
| 20260506031431 | 62 | 36 | 1.0 | 1.0 | 0.00 | 0.00 | 0.00 | 71 | 1014.9 |
| 20260506030929 | 63 | 84 | 0.0 | 0.0 | 0.00 | 0.00 | 0.00 | 71 | 1014.7 |
| 20260506030426 | 63 | 69 | 0.0 | 1.0 | 0.00 | 0.00 | 0.00 | 70 | 1014.8 |
| 20260506030004 | 77 | 0 | 0.0 | 0.0 | 0.00 | 0.00 | 0.00 | 43 | 1011.5 |
| 20260506025923 | 63 | 91 | 0.0 | 1.0 | 0.00 | 0.00 | 0.00 | 70 | 1015.0 |
| 20260506025420 | 63 | 93 | 0.0 | 0.0 | 0.00 | 0.00 | 0.00 | 71 | 1014.9 |
| 20260506024916 | 64 | 93 | 0.0 | 1.0 | 0.00 | 0.00 | 0.00 | 70 | 1014.9 |
| 20260506024414 | 64 | 111 | 1.0 | 1.0 | 0.00 | 0.00 | 0.00 | 69 | 1015.0 |
| 20260506023910 | 64 | 84 | 0.0 | 0.0 | 0.00 | 0.00 | 0.00 | 67 | 1015.0 |
| 20260506023407 | 64 | 85 | 0.0 | 1.0 | 0.00 | 0.00 | 0.00 | 67 | 1014.7 |
| 20260506023004 | 77 | 0 | 0.0 | 0.0 | 0.00 | 0.00 | 0.00 | 43 | 1011.5 |
| 20260506022903 | 65 | 18 | 0.0 | 2.0 | 0.00 | 0.00 | 0.00 | 66 | 1014.9 |
| 20260506022401 | 65 | 93 | 0.0 | 1.0 | 0.00 | 0.00 | 0.00 | 66 | 1014.7 |
| 20260506021859 | 65 | 74 | 0.0 | 1.0 | 0.00 | 0.00 | 0.00 | 64 | 1014.6 |
| 20260506021355 | 65 | 173 | 1.0 | 2.0 | 0.00 | 0.00 | 0.00 | 66 | 1014.8 |
| 20260506020852 | 65 | 99 | 1.0 | 1.0 | 0.00 | 0.00 | 0.00 | 68 | 1014.6 |
| 20260506020350 | 65 | 92 | 0.0 | 0.0 | 0.00 | 0.00 | 0.00 | 69 | 1014.5 |
| 20260506020004 | 77 | 0 | 0.0 | 0.0 | 0.00 | 0.00 | 0.00 | 43 | 1011.3 |
| 20260506015847 | 65 | 91 | 0.0 | 1.0 | 0.00 | 0.00 | 0.00 | 69 | 1014.4 |
| 20260506015345 | 65 | 82 | 0.0 | 0.0 | 0.00 | 0.00 | 0.00 | 69 | 1014.5 |
| 20260506014841 | 65 | 95 | 0.0 | 0.0 | 0.00 | 0.00 | 0.00 | 69 | 1014.5 |
| 20260506014338 | 66 | 95 | 0.0 | 1.0 | 0.00 | 0.00 | 0.00 | 68 | 1014.6 |
| 20260506013835 | 66 | 95 | 0.0 | 1.0 | 0.00 | 0.00 | 0.00 | 68 | 1014.6 |
| 20260506013332 | 66 | 93 | 0.0 | 0.0 | 0.00 | 0.00 | 0.00 | 68 | 1014.7 |
| 20260506013002 | 77 | 0 | 0.0 | 0.0 | 0.00 | 0.00 | 0.00 | 43 | 1011.4 |
| 20260506012828 | 66 | 94 | 0.0 | 1.0 | 0.00 | 0.00 | 0.00 | 68 | 1014.6 |
| 20260506012326 | 66 | 87 | 0.0 | 0.0 | 0.00 | 0.00 | 0.00 | 66 | 1014.6 |
| 20260506011823 | 67 | 87 | 0.0 | 1.0 | 0.00 | 0.00 | 0.00 | 66 | 1014.6 |
| 20260506011320 | 67 | 87 | 0.0 | 0.0 | 0.00 | 0.00 | 0.00 | 66 | 1014.5 |
| 20260506010817 | 67 | 87 | 0.0 | 0.0 | 0.00 | 0.00 | 0.00 | 65 | 1014.5 |
| 20260506010315 | 68 | 87 | 0.0 | 0.0 | 0.00 | 0.00 | 0.00 | 64 | 1014.6 |
| 20260506005811 | 68 | 87 | 0.0 | 0.0 | 0.00 | 0.00 | 0.00 | 64 | 1014.5 |
| 20260506005308 | 69 | 87 | 0.0 | 0.0 | 0.00 | 0.00 | 0.00 | 62 | 1014.3 |
| 20260506004805 | 69 | 87 | 0.0 | 0.0 | 0.00 | 0.00 | 0.00 | 60 | 1014.5 |
| 20260506004303 | 70 | 87 | 0.0 | 0.0 | 0.00 | 0.00 | 0.00 | 59 | 1014.5 |
| 20260506003758 | 71 | 87 | 0.0 | 0.0 | 0.00 | 0.00 | 0.00 | 58 | 1014.5 |
| 20260506003255 | 71 | 86 | 0.0 | 0.0 | 0.00 | 0.00 | 0.00 | 57 | 1014.4 |
| 20260506003002 | 77 | 0 | 0.0 | 0.0 | 0.00 | 0.00 | 0.00 | 43 | 1011.0 |
| 20260506002751 | 72 | 86 | 0.0 | 1.0 | 0.00 | 0.00 | 0.00 | 56 | 1014.3 |
| 20260506002247 | 73 | 82 | 0.0 | 0.0 | 0.00 | 0.00 | 0.00 | 53 | 1014.1 |
| 20260506001743 | 74 | 91 | 0.0 | 1.0 | 0.00 | 0.00 | 0.00 | 52 | 1014.2 |
| 20260506001241 | 75 | 81 | 0.0 | 0.0 | 0.00 | 0.00 | 0.00 | 50 | 1014.0 |
| 20260506000737 | 75 | 90 | 0.0 | 0.0 | 0.00 | 0.00 | 0.00 | 48 | 1014.0 |
| 20260506000235 | 76 | 90 | 0.0 | 0.0 | 0.00 | 0.00 | 0.00 | 47 | 1014.0 |
| 20260506000002 | 77 | 187 | 0.0 | 0.0 | 0.00 | 0.00 | 0.00 | 43 | 1010.4 |
| 20260505235732 | 77 | 90 | 0.0 | 2.0 | 0.00 | 0.00 | 0.00 | 47 | 1013.8 |
| 20260505235229 | 77 | 86 | 0.0 | 1.0 | 0.00 | 0.00 | 0.00 | 45 | 1013.7 |
| 20260505234726 | 78 | 80 | 0.0 | 1.0 | 0.00 | 0.00 | 0.00 | 44 | 1013.6 |
| 20260505234224 | 78 | 95 | 1.0 | 1.0 | 0.00 | 0.00 | 0.00 | 43 | 1013.8 |
| 20260505233720 | 79 | 112 | 1.0 | 2.0 | 0.00 | 0.00 | 0.00 | 43 | 1013.8 |
| 20260505233218 | 80 | 87 | 0.0 | 1.0 | 0.00 | 0.00 | 0.00 | 42 | 1013.7 |
| 20260505233002 | 79 | 177 | 0.0 | 0.0 | 0.00 | 0.00 | 0.00 | 37 | 1010.4 |
| 20260505232715 | 80 | 65 | 0.0 | 3.0 | 0.00 | 0.00 | 0.00 | 40 | 1013.6 |
| 20260505232212 | 81 | 81 | 0.0 | 2.0 | 0.00 | 0.00 | 0.00 | 40 | 1013.7 |
| 20260505231709 | 81 | 83 | 1.0 | 1.0 | 0.00 | 0.00 | 0.00 | 39 | 1013.5 |
| 20260505231208 | 82 | 269 | 2.0 | 3.0 | 0.00 | 0.00 | 0.00 | 38 | 1013.7 |
| 20260505230706 | 82 | 101 | 1.0 | 6.0 | 0.00 | 0.00 | 0.00 | 38 | 1013.5 |
| 20260505230202 | 83 | 151 | 2.0 | 3.0 | 0.00 | 0.00 | 0.00 | 38 | 1013.6 |
| 20260505230002 | 82 | 187 | 0.0 | 0.0 | 0.00 | 0.00 | 0.00 | 33 | 1010.3 |
| 20260505225658 | 82 | 96 | 1.0 | 1.0 | 0.00 | 0.00 | 0.00 | 37 | 1013.6 |
| 20260505225155 | 82 | 76 | 0.0 | 2.0 | 0.00 | 0.00 | 0.00 | 39 | 1013.7 |
| 20260505224651 | 82 | 140 | 2.0 | 3.0 | 0.00 | 0.00 | 0.00 | 38 | 1013.5 |
| 20260505224149 | 83 | 91 | 2.0 | 3.0 | 0.00 | 0.00 | 0.00 | 38 | 1013.7 |
| 20260505223646 | 83 | 73 | 1.0 | 4.0 | 0.00 | 0.00 | 0.00 | 37 | 1013.8 |
| 20260505223142 | 83 | 67 | 1.0 | 3.0 | 0.00 | 0.00 | 0.00 | 38 | 1013.7 |
| 20260505223002 | 82 | 190 | 0.0 | 0.0 | 0.00 | 0.00 | 0.00 | 34 | 1010.4 |
| 20260505222638 | 83 | 103 | 0.0 | 3.0 | 0.00 | 0.00 | 0.00 | 38 | 1013.8 |
| 20260505222135 | 83 | 130 | 2.0 | 2.0 | 0.00 | 0.00 | 0.00 | 40 | 1013.8 |
| 20260505221632 | 83 | 72 | 1.0 | 3.0 | 0.00 | 0.00 | 0.00 | 38 | 1013.7 |
| 20260505221128 | 83 | 144 | 4.0 | 4.0 | 0.00 | 0.00 | 0.00 | 38 | 1014.1 |
| 20260505220626 | 83 | 52 | 3.0 | 6.0 | 0.00 | 0.00 | 0.00 | 38 | 1014.0 |
| 20260505220123 | 84 | 96 | 0.0 | 6.0 | 0.00 | 0.00 | 0.00 | 37 | 1013.9 |
| 20260505220002 | 82 | 159 | 0.0 | 0.0 | 0.00 | 0.00 | 0.00 | 34 | 1010.8 |
| 20260505215621 | 83 | 76 | 0.0 | 1.0 | 0.00 | 0.00 | 0.00 | 38 | 1014.1 |
| 20260505215119 | 82 | 68 | 1.0 | 4.0 | 0.00 | 0.00 | 0.00 | 41 | 1014.0 |
| 20260505214617 | 82 | 74 | 1.0 | 2.0 | 0.00 | 0.00 | 0.00 | 41 | 1014.0 |
| 20260505214114 | 82 | 87 | 0.0 | 4.0 | 0.00 | 0.00 | 0.00 | 39 | 1014.0 |
| 20260505213611 | 83 | 86 | 1.0 | 3.0 | 0.00 | 0.00 | 0.00 | 39 | 1014.3 |
| 20260505213108 | 83 | 133 | 2.0 | 3.0 | 0.00 | 0.00 | 0.00 | 38 | 1014.1 |
| 20260505213002 | 83 | 139 | 0.0 | 0.0 | 0.00 | 0.00 | 0.00 | 34 | 1010.8 |
| 20260505212603 | 84 | 174 | 2.0 | 4.0 | 0.00 | 0.00 | 0.00 | 38 | 1014.1 |
| 20260505212101 | 84 | 107 | 2.0 | 8.0 | 0.00 | 0.00 | 0.00 | 38 | 1014.3 |
| 20260505211553 | 83 | 84 | 1.0 | 3.0 | 0.00 | 0.00 | 0.00 | 39 | 1014.0 |
| 20260505211050 | 84 | 44 | 2.0 | 3.0 | 0.00 | 0.00 | 0.00 | 39 | 1014.3 |
| 20260505210546 | 84 | 229 | 4.0 | 6.0 | 0.00 | 0.00 | 0.00 | 38 | 1014.1 |
| 20260505210043 | 83 | 114 | 2.0 | 4.0 | 0.00 | 0.00 | 0.00 | 40 | 1014.1 |
| 20260505210002 | 81 | 184 | 0.0 | 0.0 | 0.00 | 0.00 | 0.00 | 35 | 1010.9 |
| 20260505205541 | 81 | 275 | 1.0 | 2.0 | 0.00 | 0.00 | 0.00 | 42 | 1014.2 |
| 20260505205038 | 81 | 87 | 2.0 | 2.0 | 0.00 | 0.00 | 0.00 | 42 | 1014.3 |
| 20260505204535 | 81 | 49 | 1.0 | 2.0 | 0.00 | 0.00 | 0.00 | 42 | 1014.4 |
| 20260505204032 | 82 | 117 | 1.0 | 4.0 | 0.00 | 0.00 | 0.00 | 40 | 1014.4 |
| 20260505203529 | 82 | 190 | 3.0 | 6.0 | 0.00 | 0.00 | 0.00 | 41 | 1014.3 |
| 20260505203026 | 82 | 75 | 1.0 | 4.0 | 0.00 | 0.00 | 0.00 | 41 | 1014.4 |
| 20260505203002 | 81 | 195 | 0.0 | 0.0 | 0.00 | 0.00 | 0.00 | 35 | 1011.1 |
| 20260505202522 | 81 | 273 | 1.0 | 2.0 | 0.00 | 0.00 | 0.00 | 44 | 1014.4 |
| 20260505202018 | 82 | 106 | 1.0 | 3.0 | 0.00 | 0.00 | 0.00 | 41 | 1014.5 |
| 20260505201515 | 84 | 184 | 3.0 | 6.0 | 0.00 | 0.00 | 0.00 | 40 | 1014.5 |
| 20260505201013 | 84 | 86 | 0.0 | 3.0 | 0.00 | 0.00 | 0.00 | 40 | 1014.5 |
| 20260505200510 | 83 | 95 | 2.0 | 3.0 | 0.00 | 0.00 | 0.00 | 40 | 1014.7 |
| 20260505200007 | 84 | 47 | 1.0 | 7.0 | 0.00 | 0.00 | 0.00 | 39 | 1014.7 |
| 20260505200002 | 82 | 171 | 0.0 | 0.0 | 0.00 | 0.00 | 0.00 | 35 | 1011.4 |
| 20260505195503 | 84 | 77 | 2.0 | 3.0 | 0.00 | 0.00 | 0.00 | 37 | 1014.9 |
| 20260505195001 | 83 | 128 | 3.0 | 4.0 | 0.00 | 0.00 | 0.00 | 38 | 1015.0 |
| 20260505194458 | 83 | 85 | 1.0 | 1.0 | 0.00 | 0.00 | 0.00 | 41 | 1014.8 |
| 20260505193958 | 83 | 26 | 2.0 | 3.0 | 0.00 | 0.00 | 0.00 | 37 | 1015.1 |
| 20260505193456 | 82 | 181 | 1.0 | 4.0 | 0.00 | 0.00 | 0.00 | 40 | 1015.0 |
| 20260505192953 | 82 | 313 | 3.0 | 4.0 | 0.00 | 0.00 | 0.00 | 39 | 1015.2 |
| 20260505192451 | 82 | 139 | 1.0 | 4.0 | 0.00 | 0.00 | 0.00 | 41 | 1015.5 |
| 20260505191948 | 82 | 105 | 1.0 | 3.0 | 0.00 | 0.00 | 0.00 | 41 | 1015.4 |
| 20260505191447 | 82 | 284 | 4.0 | 6.0 | 0.00 | 0.00 | 0.00 | 41 | 1015.5 |
| 20260505190943 | 84 | 195 | 2.0 | 3.0 | 0.00 | 0.00 | 0.00 | 40 | 1015.5 |
| 20260505190438 | 83 | 80 | 1.0 | 3.0 | 0.00 | 0.00 | 0.00 | 43 | 1015.6 |
| 20260505185934 | 83 | 66 | 2.0 | 8.0 | 0.00 | 0.00 | 0.00 | 42 | 1015.6 |
| 20260505185432 | 82 | 284 | 2.0 | 3.0 | 0.00 | 0.00 | 0.00 | 43 | 1015.8 |
| 20260505184928 | 81 | 101 | 1.0 | 2.0 | 0.00 | 0.00 | 0.00 | 43 | 1015.9 |
| 20260505184425 | 82 | 356 | 2.0 | 3.0 | 0.00 | 0.00 | 0.00 | 42 | 1015.8 |
| 20260505183917 | 81 | 23 | 1.0 | 3.0 | 0.00 | 0.00 | 0.00 | 43 | 1016.1 |
| 20260505183414 | 81 | 118 | 4.0 | 6.0 | 0.00 | 0.00 | 0.00 | 42 | 1016.3 |
| 20260505182910 | 81 | 158 | 1.0 | 3.0 | 0.00 | 0.00 | 0.00 | 44 | 1016.2 |
| 20260505182407 | 82 | 107 | 1.0 | 7.0 | 0.00 | 0.00 | 0.00 | 42 | 1016.3 |
| 20260505181903 | 82 | 117 | 2.0 | 6.0 | 0.00 | 0.00 | 0.00 | 42 | 1016.4 |
| 20260505181400 | 81 | 256 | 3.0 | 6.0 | 0.00 | 0.00 | 0.00 | 43 | 1016.2 |
| 20260505180856 | 81 | 230 | 5.0 | 6.0 | 0.00 | 0.00 | 0.00 | 43 | 1016.4 |
| 20260505180353 | 80 | 214 | 3.0 | 6.0 | 0.00 | 0.00 | 0.00 | 44 | 1016.4 |
| 20260505180003 | 79 | 179 | 0.0 | 0.0 | 0.00 | 0.00 | 0.00 | 41 | 1013.1 |
| 20260505175850 | 80 | 79 | 1.0 | 3.0 | 0.00 | 0.00 | 0.00 | 45 | 1016.5 |
| 20260505175346 | 80 | 174 | 2.0 | 3.0 | 0.00 | 0.00 | 0.00 | 45 | 1016.5 |
| 20260505174843 | 81 | 106 | 4.0 | 7.0 | 0.00 | 0.00 | 0.00 | 43 | 1016.5 |
| 20260505174341 | 81 | 234 | 2.0 | 4.0 | 0.00 | 0.00 | 0.00 | 44 | 1016.5 |
| 20260505173836 | 79 | 255 | 2.0 | 4.0 | 0.00 | 0.00 | 0.00 | 47 | 1016.7 |
| 20260505173332 | 80 | 67 | 2.0 | 4.0 | 0.00 | 0.00 | 0.00 | 44 | 1016.6 |
| 20260505173002 | 80 | 176 | 0.0 | 0.0 | 0.00 | 0.00 | 0.00 | 38 | 1013.2 |
| 20260505172825 | 80 | 127 | 2.0 | 3.0 | 0.00 | 0.00 | 0.00 | 43 | 1016.7 |
| 20260505172322 | 80 | 266 | 2.0 | 3.0 | 0.00 | 0.00 | 0.00 | 44 | 1016.8 |
| 20260505171816 | 80 | 232 | 3.0 | 7.0 | 0.00 | 0.00 | 0.00 | 44 | 1016.7 |
| 20260505171313 | 80 | 58 | 1.0 | 9.0 | 0.00 | 0.00 | 0.00 | 44 | 1016.7 |
| 20260505170809 | 79 | 113 | 1.0 | 2.0 | 0.00 | 0.00 | 0.00 | 45 | 1016.8 |
| 20260505170307 | 79 | 123 | 1.0 | 4.0 | 0.00 | 0.00 | 0.00 | 43 | 1016.9 |
| 20260505170002 | 78 | 185 | 0.0 | 0.0 | 0.00 | 0.00 | 0.00 | 41 | 1013.6 |
| 20260505165802 | 79 | 23 | 1.0 | 3.0 | 0.00 | 0.00 | 0.00 | 46 | 1016.9 |
| 20260505165258 | 79 | 254 | 3.0 | 7.0 | 0.00 | 0.00 | 0.00 | 47 | 1017.0 |
| 20260505164753 | 79 | 96 | 1.0 | 2.0 | 0.00 | 0.00 | 0.00 | 49 | 1017.0 |
| 20260505164251 | 79 | 96 | 2.0 | 4.0 | 0.00 | 0.00 | 0.00 | 48 | 1017.2 |
| 20260505163749 | 78 | 101 | 2.0 | 4.0 | 0.00 | 0.00 | 0.00 | 49 | 1017.0 |
| 20260505163247 | 78 | 150 | 1.0 | 3.0 | 0.00 | 0.00 | 0.00 | 50 | 1017.2 |
| 20260505162745 | 78 | 81 | 0.0 | 4.0 | 0.00 | 0.00 | 0.00 | 52 | 1017.2 |
| 20260505162241 | 79 | 310 | 2.0 | 6.0 | 0.00 | 0.00 | 0.00 | 49 | 1017.1 |
| 20260505161738 | 77 | 15 | 0.0 | 1.0 | 0.00 | 0.00 | 0.00 | 52 | 1017.2 |
| 20260505161236 | 76 | 88 | 1.0 | 2.0 | 0.00 | 0.00 | 0.00 | 55 | 1017.3 |
| 20260505160733 | 77 | 95 | 3.0 | 9.0 | 0.00 | 0.00 | 0.00 | 52 | 1017.3 |
| 20260505160231 | 76 | 90 | 1.0 | 2.0 | 0.00 | 0.00 | 0.00 | 53 | 1017.5 |
| 20260505153210 | 73 | 85 | 0.0 | 6.0 | 0.00 | 0.00 | 0.00 | 59 | 1017.3 |
| 20260505153003 | 73 | 222 | 0.0 | 0.0 | 0.00 | 0.00 | 0.00 | 57 | 1014.0 |
| 20260505152706 | 73 | 265 | 2.0 | 4.0 | 0.00 | 0.00 | 0.00 | 61 | 1017.4 |
| 20260505152203 | 72 | 90 | 1.0 | 4.0 | 0.00 | 0.00 | 0.00 | 60 | 1017.4 |
| 20260505151658 | 72 | 10 | 1.0 | 6.0 | 0.00 | 0.00 | 0.00 | 61 | 1017.4 |
| 20260505151155 | 72 | 245 | 4.0 | 7.0 | 0.00 | 0.00 | 0.00 | 62 | 1017.5 |
| 20260505150650 | 72 | 187 | 1.0 | 4.0 | 0.00 | 0.00 | 0.00 | 62 | 1017.4 |
| 20260505150148 | 71 | 92 | 1.0 | 3.0 | 0.00 | 0.00 | 0.00 | 63 | 1017.5 |
| 20260505140616 | 67 | 78 | 0.0 | 1.0 | 0.00 | 0.00 | 0.00 | 71 | 1017.3 |
| 20260505140113 | 67 | 99 | 2.0 | 2.0 | 0.00 | 0.00 | 0.00 | 71 | 1017.3 |
| 20260505125030 | 62 | 83 | 0.0 | 2.0 | 0.00 | 0.00 | 0.00 | 81 | 1017.0 |
| 20260505124526 | 62 | 67 | 0.0 | 1.0 | 0.00 | 0.00 | 0.00 | 82 | 1017.1 |
| 20260505124023 | 61 | 101 | 0.0 | 1.0 | 0.00 | 0.00 | 0.00 | 83 | 1017.0 |
| 20260505123519 | 61 | 83 | 0.0 | 1.0 | 0.00 | 0.00 | 0.00 | 84 | 1016.9 |
| 20260505123015 | 60 | 294 | 1.0 | 3.0 | 0.00 | 0.00 | 0.00 | 85 | 1017.0 |
| 20260505123002 | 58 | 193 | 0.0 | 0.0 | 0.00 | 0.00 | 0.00 | 92 | 1013.7 |
| 20260505122513 | 60 | 92 | 0.0 | 0.0 | 0.00 | 0.00 | 0.00 | 86 | 1016.9 |
| 20260505122009 | 59 | 73 | 1.0 | 1.0 | 0.00 | 0.00 | 0.00 | 86 | 1016.9 |
| 20260505121506 | 59 | 85 | 0.0 | 0.0 | 0.00 | 0.00 | 0.00 | 88 | 1016.6 |
| 20260505121002 | 58 | 83 | 0.0 | 0.0 | 0.00 | 0.00 | 0.00 | 90 | 1016.6 |
| 20260505120459 | 57 | 82 | 0.0 | 0.0 | 0.00 | 0.00 | 0.00 | 91 | 1016.4 |
| 20260505120004 | 55 | 187 | 0.0 | 0.0 | 0.00 | 0.00 | 0.00 | 96 | 1013.2 |
| 20260505115958 | 57 | 85 | 0.0 | 1.0 | 0.00 | 0.00 | 0.00 | 93 | 1016.7 |
| 20260505115454 | 56 | 84 | 0.0 | 0.0 | 0.00 | 0.00 | 0.00 | 94 | 1016.6 |
| 20260505114953 | 55 | 93 | 0.0 | 1.0 | 0.00 | 0.00 | 0.00 | 95 | 1016.5 |
| 20260505114448 | 54 | 91 | 0.0 | 0.0 | 0.00 | 0.00 | 0.00 | 96 | 1016.7 |
| 20260505113945 | 54 | 91 | 0.0 | 0.0 | 0.00 | 0.00 | 0.00 | 95 | 1016.4 |
| 20260505113441 | 53 | 91 | 0.0 | 0.0 | 0.00 | 0.00 | 0.00 | 95 | 1016.4 |
| 20260505113003 | 72 | 0 | 0.0 | 0.0 | 0.00 | 0.00 | 0.00 | 43 | 1013.0 |
| 20260505112937 | 53 | 91 | 0.0 | 0.0 | 0.00 | 0.00 | 0.00 | 95 | 1016.4 |
| 20260505112435 | 53 | 91 | 0.0 | 0.0 | 0.00 | 0.00 | 0.00 | 95 | 1016.4 |
| 20260505111931 | 53 | 91 | 0.0 | 0.0 | 0.00 | 0.00 | 0.00 | 95 | 1016.2 |
| 20260505111426 | 52 | 91 | 0.0 | 0.0 | 0.00 | 0.00 | 0.00 | 95 | 1016.3 |
| 20260505110923 | 52 | 91 | 0.0 | 0.0 | 0.00 | 0.00 | 0.00 | 95 | 1015.9 |
| 20260505110420 | 52 | 91 | 0.0 | 0.0 | 0.00 | 0.00 | 0.00 | 94 | 1016.2 |
| 20260505101850 | 53 | 91 | 0.0 | 0.0 | 0.00 | 0.00 | 0.00 | 94 | 1015.7 |
| 20260505101345 | 53 | 91 | 0.0 | 0.0 | 0.00 | 0.00 | 0.00 | 93 | 1015.7 |
| 20260505100841 | 53 | 91 | 0.0 | 0.0 | 0.00 | 0.00 | 0.00 | 93 | 1015.7 |
| 20260505100338 | 53 | 91 | 0.0 | 0.0 | 0.00 | 0.00 | 0.00 | 93 | 1015.8 |
| 20260505100002 | 72 | 0 | 0.0 | 0.0 | 0.00 | 0.00 | 0.00 | 43 | 1012.6 |
| 20260505095833 | 52 | 91 | 0.0 | 0.0 | 0.00 | 0.00 | 0.00 | 93 | 1015.7 |
| 20260505095332 | 52 | 92 | 0.0 | 0.0 | 0.00 | 0.00 | 0.00 | 92 | 1015.9 |
| 20260505094827 | 53 | 91 | 0.0 | 0.0 | 0.00 | 0.00 | 0.00 | 92 | 1016.1 |
| 20260505094324 | 53 | 91 | 0.0 | 0.0 | 0.00 | 0.00 | 0.00 | 92 | 1016.3 |
| 20260505093820 | 53 | 91 | 0.0 | 0.0 | 0.00 | 0.00 | 0.00 | 91 | 1016.2 |
| 20260505093318 | 53 | 91 | 0.0 | 0.0 | 0.00 | 0.00 | 0.00 | 91 | 1016.2 |
| 20260505093003 | 72 | 0 | 0.0 | 0.0 | 0.00 | 0.00 | 0.00 | 43 | 1012.9 |
| 20260505092814 | 53 | 92 | 0.0 | 0.0 | 0.00 | 0.00 | 0.00 | 90 | 1016.2 |
| 20260505092313 | 53 | 92 | 0.0 | 0.0 | 0.00 | 0.00 | 0.00 | 90 | 1016.3 |
| 20260505091810 | 53 | 95 | 0.0 | 1.0 | 0.00 | 0.00 | 0.00 | 90 | 1016.2 |
| 20260505091308 | 53 | 92 | 0.0 | 0.0 | 0.00 | 0.00 | 0.00 | 90 | 1016.2 |